H1 CPF 2 NER 2025 8 31 9 243 01 glonass129 H2 1106402 9129 37868 2025 8 31 0 0 0 2025 9 3 23 45 0 900 1 1 0 0 0 1 H9 10 0 60918 0.00000 0 9464498.015 -21877863.800 -8969223.528 10 0 60918 900.00000 0 9060128.703 -20641219.337 -11849514.862 10 0 60918 1800.00000 0 8704170.680 -19039973.418 -14498506.615 10 0 60918 2700.00000 0 8447718.211 -17108217.512 -16864463.483 10 0 60918 3600.00000 0 8335139.110 -14891396.231 -18901198.732 10 0 60918 4500.00000 0 8402017.489 -12444583.041 -20568988.654 10 0 60918 5400.00000 0 8673484.492 -9830361.185 -21835355.676 10 0 60918 6300.00000 0 9163008.957 -7116399.661 -22675704.275 10 0 60918 7200.00000 0 9871699.788 -4372826.955 -23073797.195 10 0 60918 8100.00000 0 10788149.595 -1669513.438 -23022063.103 10 0 60918 9000.00000 0 11888825.700 926623.186 -22521730.525 10 0 60918 9900.00000 0 13138991.091 3354176.593 -21582786.584 10 0 60918 10800.00000 0 14494115.297 5559568.238 -20223762.710 10 0 60918 11700.00000 0 15901714.439 7499025.878 -18471352.947 10 0 60918 12600.00000 0 17303541.716 9140143.357 -16359873.758 10 0 60918 13500.00000 0 18638035.092 10462958.933 -13930577.279 10 0 60918 14400.00000 0 19842918.484 11460510.003 -11230832.618 10 0 60918 15300.00000 0 20857846.746 12138844.167 -8313192.277 10 0 60918 16200.00000 0 21626983.387 12516489.500 -5234362.693 10 0 60918 17100.00000 0 22101403.255 12623409.346 -2054099.511 10 0 60918 18000.00000 0 22241220.213 12499488.278 1165950.635 10 0 60918 18900.00000 0 22017351.684 12192615.027 4363439.387 10 0 60918 19800.00000 0 21412847.387 11756444.501 7476514.302 10 0 60918 20700.00000 0 20423727.837 11247933.773 10445002.365 10 0 60918 21600.00000 0 19059298.607 10724755.773 13211557.522 10 0 60918 22500.00000 0 17341927.840 10242698.816 15722751.419 10 0 60918 23400.00000 0 15306296.513 9853160.307 17930087.785 10 0 60918 24300.00000 0 12998152.225 9600838.588 19790922.539 10 0 60918 25200.00000 0 10472617.321 9521718.534 21269273.559 10 0 60918 26100.00000 0 7792120.045 9641434.342 22336505.907 10 0 60918 27000.00000 0 5024032.456 9974077.485 22971880.525 10 0 60918 27900.00000 0 2238110.630 10521499.793 23162956.567 10 0 60918 28800.00000 0 -496159.271 11273141.493 22905839.798 10 0 60918 29700.00000 0 -3112201.542 12206392.806 22205271.901 10 0 60918 30600.00000 0 -5548870.746 13287475.953 21074557.980 10 0 60918 31500.00000 0 -7752747.850 14472813.060 19535332.143 10 0 60918 32400.00000 0 -9680118.340 15710825.237 17617163.744 10 0 60918 33300.00000 0 -11298550.337 16944089.931 15357009.689 10 0 60918 34200.00000 0 -12588006.637 18111768.083 12798521.130 10 0 60918 35100.00000 0 -13541443.414 19152200.618 9991215.894 10 0 60918 36000.00000 0 -14164869.388 20005565.692 6989530.886 10 0 60918 36900.00000 0 -14476861.718 20616484.529 3851771.675 10 0 60918 37800.00000 0 -14507557.901 20936464.853 638979.078 10 0 60918 38700.00000 0 -14297165.435 20926076.892 -2586265.114 10 0 60918 39600.00000 0 -13894051.951 20556767.610 -5761069.195 10 0 60918 40500.00000 0 -13352497.020 19812233.760 -8823474.040 10 0 60918 41400.00000 0 -12730201.843 18689293.023 -11713681.017 10 0 60918 42300.00000 0 -12085663.932 17198213.930 -14375239.295 10 0 60918 43200.00000 0 -11475529.995 15362488.686 -16756167.297 10 0 60918 44100.00000 0 -10952041.387 13218057.085 -18809984.525 10 0 60918 45000.00000 0 -10560682.384 10812013.546 -20496631.974 10 0 60918 45900.00000 0 -10338132.712 8200851.618 -21783262.063 10 0 60918 46800.00000 0 -10310612.238 5448320.126 -22644882.032 10 0 60918 47700.00000 0 -10492688.582 2622981.708 -23064838.156 10 0 60918 48600.00000 0 -10886598.087 -204423.132 -23035131.722 10 0 60918 49500.00000 0 -11482108.308 -2963695.424 -22556561.439 10 0 60918 50400.00000 0 -12256926.750 -5587866.504 -21638690.630 10 0 60918 51300.00000 0 -13177637.200 -8015743.951 -20299641.226 10 0 60918 52200.00000 0 -14201122.550 -10194209.144 -18565720.011 10 0 60918 53100.00000 0 -15276412.515 -12080171.861 -16470885.892 10 0 60918 54000.00000 0 -16346876.872 -13642102.341 -14056069.990 10 0 60918 54900.00000 0 -17352670.700 -14861079.348 -11368363.035 10 0 60918 55800.00000 0 -18233327.780 -15731313.363 -8460087.014 10 0 60918 56700.00000 0 -18930392.688 -16260126.168 -5387769.989 10 0 60918 57600.00000 0 -19389980.923 -16467390.827 -2211044.597 10 0 60918 58500.00000 0 -19565159.917 -16384458.443 1008508.024 10 0 60918 59400.00000 0 -19418051.754 -16052619.210 4208546.453 10 0 60918 60300.00000 0 -18921570.357 -15521164.232 7327166.718 10 0 60918 61200.00000 0 -18060721.404 -14845130.725 10304086.965 10 0 60918 62100.00000 0 -16833411.509 -14082825.722 13081797.231 10 0 60918 63000.00000 0 -15250733.495 -13293232.043 15606653.394 10 0 60918 63900.00000 0 -13336716.100 -12533404.602 17829895.703 10 0 60918 64800.00000 0 -11127548.231 -11855965.055 19708573.890 10 0 60918 65700.00000 0 -8670309.095 -11306798.406 21206362.679 10 0 60918 66600.00000 0 -6021255.492 -10923046.720 22294253.431 10 0 60918 67500.00000 0 -3243735.265 -10731482.875 22951109.799 10 0 60918 68400.00000 0 -405810.963 -10747331.780 23164077.468 10 0 60918 69300.00000 0 2422310.433 -10973588.417 22928840.267 10 0 60918 70200.00000 0 5170937.900 -11400861.944 22249717.401 10 0 60918 71100.00000 0 7773539.049 -12007753.687 21139598.944 10 0 60918 72000.00000 0 10169257.407 -12761755.124 19619719.339 10 0 60918 72900.00000 0 12305201.202 -13620630.420 17719271.354 10 0 60918 73800.00000 0 14138409.111 -14534227.855 15474865.750 10 0 60918 74700.00000 0 15637411.074 -15446646.176 12929844.852 10 0 60918 75600.00000 0 16783318.343 -16298666.425 10133461.201 10 0 60918 76500.00000 0 17570396.098 -17030347.856 7139935.422 10 0 60918 77400.00000 0 18006093.222 -17583678.602 4007410.360 10 0 60918 78300.00000 0 18110526.699 -17905168.505 796821.194 10 0 60918 79200.00000 0 17915441.207 -17948272.992 -2429296.446 10 0 60918 80100.00000 0 17462687.194 -17675543.304 -5608036.353 10 0 60918 81000.00000 0 16802281.659 -17060409.425 -8677364.326 10 0 60918 81900.00000 0 15990134.237 -16088517.504 -11577347.446 10 0 60918 82800.00000 0 15085536.059 -14758562.412 -14251344.024 10 0 60918 83700.00000 0 14148519.328 -13082577.919 -16647128.889 10 0 60918 84600.00000 0 13237201.385 -11085670.332 -18717930.142 10 0 60918 85500.00000 0 12405227.685 -8805205.671 -20423355.510 10 0 60919 0.00000 0 11699423.708 -6289484.263 -21730188.931 10 0 60919 900.00000 0 11157756.142 -3595957.127 -22613041.841 10 0 60919 1800.00000 0 10807691.221 -789062.900 -23054844.640 10 0 60919 2700.00000 0 10665018.421 2062227.761 -23047171.494 10 0 60919 3600.00000 0 10733189.621 4887053.503 -22590391.086 10 0 60919 4500.00000 0 11003200.075 7615379.584 -21693642.295 10 0 60919 5400.00000 0 11454014.679 10180677.268 -20374636.495 10 0 60919 6300.00000 0 12053519.628 12522453.742 -18659291.764 10 0 60919 7200.00000 0 12759957.345 14588527.857 -16581207.650 10 0 60919 8100.00000 0 13523782.214 16336958.202 -14180992.111 10 0 60919 9000.00000 0 14289857.222 17737545.129 -11505455.026 10 0 60919 9900.00000 0 14999897.573 18772846.491 -8606685.096 10 0 60919 10800.00000 0 15595057.455 19438667.533 -5541028.970 10 0 60919 11700.00000 0 16018550.627 19744007.430 -2367993.052 10 0 60919 12600.00000 0 16218194.586 19710467.630 850910.339 10 0 60919 13500.00000 0 16148771.808 19371149.401 4053350.051 10 0 60919 14400.00000 0 15774109.592 18769088.963 7177373.803 10 0 60919 15300.00000 0 15068792.141 17955297.294 10162593.937 10 0 60919 16200.00000 0 14019434.000 16986487.678 12951339.334 10 0 60919 17100.00000 0 12625462.233 15922586.298 15489752.544 10 0 60919 18000.00000 0 10899374.961 14824129.701 17728812.434 10 0 60919 18900.00000 0 8866465.304 13749657.030 19625264.294 10 0 60919 19800.00000 0 6564021.433 12753204.789 21142441.086 10 0 60919 20700.00000 0 4040034.603 11882007.380 22250961.499 10 0 60919 21600.00000 0 1351466.878 11174498.157 22929292.554 10 0 60919 22500.00000 0 -1437852.059 10658693.425 23164166.716 10 0 60919 23400.00000 0 -4259614.493 10351026.335 22950845.713 10 0 60919 24300.00000 0 -7043614.474 10255679.424 22293225.659 10 0 60919 25200.00000 0 -9720413.546 10364444.396 21203780.514 10 0 60919 26100.00000 0 -12223984.103 10657116.275 19703343.504 10 0 60919 27000.00000 0 -14494222.374 11102407.157 17820728.821 10 0 60919 27900.00000 0 -16479227.580 11659343.233 15592198.703 10 0 60919 28800.00000 0 -18137252.574 12279088.376 13060783.952 10 0 60919 29700.00000 0 -19438244.165 12907119.310 10275468.919 10 0 60919 30600.00000 0 -20364907.672 13485661.927 7290254.922 10 0 60919 31500.00000 0 -20913249.668 13956286.429 4163119.028 10 0 60919 32400.00000 0 -21092574.574 14262551.344 954887.755 10 0 60919 33300.00000 0 -20924933.799 14352583.423 -2271952.368 10 0 60919 34200.00000 0 -20444049.549 14181482.315 -5454483.465 10 0 60919 35100.00000 0 -19693758.177 13713445.715 -8530598.945 10 0 60919 36000.00000 0 -18726038.938 12923522.207 -11440234.135 10 0 60919 36900.00000 0 -17598712.234 11798914.726 -14126558.797 10 0 60919 37800.00000 0 -16372906.000 10339776.856 -16537106.198 10 0 60919 38700.00000 0 -15110399.081 8559466.075 -18624814.772 10 0 60919 39600.00000 0 -13870955.794 6484241.621 -20348960.328 10 0 60919 40500.00000 0 -12709766.109 4152418.699 -21675959.496 10 0 60919 41400.00000 0 -11675101.000 1613014.227 -22580028.008 10 0 60919 42300.00000 0 -10806282.899 -1076058.814 -23043680.846 10 0 60919 43200.00000 0 -10132057.118 -3850172.158 -23058064.852 10 0 60919 44100.00000 0 -9669432.500 -6640446.156 -22623118.114 10 0 60919 45000.00000 0 -9423039.021 -9376392.994 -21747554.140 10 0 60919 45900.00000 0 -9385027.717 -11988628.331 -20448672.476 10 0 60919 46800.00000 0 -9535515.037 -14411538.057 -18752000.930 10 0 60919 47700.00000 0 -9843550.517 -16585789.253 -16690777.849 10 0 60919 48600.00000 0 -10268564.635 -18460581.543 -14305285.984 10 0 60919 49500.00000 0 -10762233.575 -19995546.463 -11642052.163 10 0 60919 50400.00000 0 -11270680.454 -21162217.545 -8752929.514 10 0 60919 51300.00000 0 -11736918.750 -21945012.192 -5694080.954 10 0 60919 52200.00000 0 -12103434.082 -22341687.031 -2524884.327 10 0 60919 53100.00000 0 -12314795.155 -22363250.392 693219.182 10 0 60919 54000.00000 0 -12320184.067 -22033338.241 3897910.999 10 0 60919 54900.00000 0 -12075739.995 -21387081.905 7027192.840 10 0 60919 55800.00000 0 -11546618.528 -20469516.755 10020573.538 10 0 60919 56700.00000 0 -10708681.031 -19333599.583 12820223.092 10 0 60919 57600.00000 0 -9549743.951 -18037918.041 15372072.934 10 0 60919 58500.00000 0 -8070336.259 -16644187.734 17626842.648 10 0 60919 59400.00000 0 -6283933.353 -15214640.724 19540974.995 10 0 60919 60300.00000 0 -4216657.111 -13809413.226 21077462.863 10 0 60919 61200.00000 0 -1906453.410 -12484040.012 22206553.667 10 0 60919 62100.00000 0 598220.524 -11287158.409 22906318.889 10 0 60919 63000.00000 0 3240146.744 -10258516.256 23163078.545 10 0 60919 63900.00000 0 5955465.267 -9427365.798 22971672.713 10 0 60919 64800.00000 0 8676075.859 -8811309.993 22335574.552 10 0 60919 65700.00000 0 11332226.145 -8415649.430 21266841.751 10 0 60919 66600.00000 0 13855181.237 -8233257.813 19785905.872 10 0 60919 67500.00000 0 16179866.012 -8244992.423 17921201.786 10 0 60919 68400.00000 0 18247371.592 -8420623.916 15708642.146 10 0 60919 69300.00000 0 20007222.165 -8720248.167 13190944.825 10 0 60919 70200.00000 0 21419307.388 -9096122.439 10416824.204 10 0 60919 71100.00000 0 22455398.690 -9494849.815 7440060.117 10 0 60919 72000.00000 0 23100184.515 -9859820.451 4318461.279 10 0 60919 72900.00000 0 23351779.338 -10133806.500 1112742.635 10 0 60919 73800.00000 0 23221683.295 -10261600.123 -2114661.577 10 0 60919 74700.00000 0 22734192.614 -10192581.310 -5300825.156 10 0 60919 75600.00000 0 21925284.648 -9883104.509 -8383572.513 10 0 60919 76500.00000 0 20841024.119 -9298600.277 -11302710.519 10 0 60919 77400.00000 0 19535558.103 -8415300.040 -14001223.508 10 0 60919 78300.00000 0 18068785.327 -7221508.162 -16426406.067 10 0 60919 79200.00000 0 16503799.570 -5718364.991 -18530909.522 10 0 60919 80100.00000 0 14904216.822 -3920066.664 -20273680.010 10 0 60919 81000.00000 0 13331500.708 -1853530.996 -21620768.625 10 0 60919 81900.00000 0 11842400.515 442477.242 -22545997.121 10 0 60919 82800.00000 0 10486610.896 2918725.023 -23031466.000 10 0 60919 83700.00000 0 9304752.306 5517335.544 -23067895.426 10 0 60919 84600.00000 0 8326756.942 8173981.394 -22654793.092 10 0 60919 85500.00000 0 7570727.136 10820353.829 -21800446.890 10 0 60920 0.00000 0 7042312.620 13386804.002 -20521743.991 10 0 60920 900.00000 0 6734630.383 15805046.750 -18843820.586 10 0 60920 1800.00000 0 6628728.596 18010810.560 -16799552.392 10 0 60920 2700.00000 0 6694571.388 19946328.147 -14428895.015 10 0 60920 3600.00000 0 6892501.067 21562561.226 -11778089.923 10 0 60920 4500.00000 0 7175113.463 22821069.482 -8898751.992 10 0 60920 5400.00000 0 7489465.394 23695447.450 -5846857.420 10 0 60920 6300.00000 0 7779519.758 24172271.537 -2681652.244 10 0 60920 7200.00000 0 7988724.304 24251520.112 535496.898 10 0 60920 8100.00000 0 8062615.100 23946451.513 3742287.488 10 0 60920 9000.00000 0 7951335.250 23282947.336 6876678.673 10 0 60920 9900.00000 0 7611963.432 22298350.281 9878079.072 10 0 60920 10800.00000 0 7010555.166 21039846.456 12688502.868 10 0 60920 11700.00000 0 6123811.901 19562460.370 15253673.154 10 0 60920 12600.00000 0 4940308.582 17926746.363 17524052.682 10 0 60920 13500.00000 0 3461228.557 16196272.163 19455783.783 10 0 60920 14400.00000 0 1700574.857 14434998.318 21011520.999 10 0 60920 15300.00000 0 -315151.874 12704661.175 22161141.826 10 0 60920 16200.00000 0 -2547796.906 11062266.660 22882323.150 10 0 60920 17100.00000 0 -4948883.470 9557797.480 23160973.063 10 0 60920 18000.00000 0 -7461380.603 8232227.774 22991510.053 10 0 60920 18900.00000 0 -10021836.238 7115926.815 22376983.902 10 0 60920 19800.00000 0 -12562790.002 6227517.782 21329035.093 10 0 60920 20700.00000 0 -15015368.248 5573239.313 19867692.076 10 0 60920 21600.00000 0 -17311955.831 5146837.158 18021008.447 10 0 60920 22500.00000 0 -19388835.199 4929991.582 15824544.866 10 0 60920 23400.00000 0 -21188683.731 4893264.029 13320703.485 10 0 60920 24300.00000 0 -22662825.232 4997524.745 10557925.615 10 0 60920 25200.00000 0 -23773140.739 5195802.588 7589766.329 10 0 60920 26100.00000 0 -24493557.222 5435479.878 4473862.635 10 0 60920 27000.00000 0 -24811049.918 5660739.863 1270814.544 10 0 60920 27900.00000 0 -24726114.139 5815162.811 -1956999.262 10 0 60920 28800.00000 0 -24252684.787 5844359.574 -5146647.406 10 0 60920 29700.00000 0 -23417505.394 5698529.108 -8235888.275 10 0 60920 30600.00000 0 -22258972.285 5334829.107 -11164403.064 10 0 60920 31500.00000 0 -20825502.288 4719456.498 -13874993.220 10 0 60920 32400.00000 0 -19173493.223 3829346.840 -16314716.881 10 0 60920 33300.00000 0 -17364964.168 2653418.019 -18435940.143 10 0 60920 34200.00000 0 -15464976.426 1193303.435 -20197280.912 10 0 60920 35100.00000 0 -13538945.463 -536457.983 -21564425.708 10 0 60920 36000.00000 0 -11649958.579 -2508784.050 -22510802.768 10 0 60920 36900.00000 0 -9856212.404 -4684949.036 -23018098.059 10 0 60920 37800.00000 0 -8208678.694 -7015982.929 -23076604.541 10 0 60920 38700.00000 0 -6749096.524 -9444511.015 -22685398.552 10 0 60920 39600.00000 0 -5508374.509 -11906955.890 -21852341.015 10 0 60920 40500.00000 0 -4505468.683 -14336008.912 -20593904.795 10 0 60920 41400.00000 0 -3746781.020 -16663267.056 -18934832.995 10 0 60920 42300.00000 0 -3226101.255 -18821924.494 -16907636.382 10 0 60920 43200.00000 0 -2925091.488 -20749406.475 -14551941.161 10 0 60920 44100.00000 0 -2814290.192 -22389835.971 -11913701.104 10 0 60920 45000.00000 0 -2854590.488 -23696230.986 -9044290.498 10 0 60920 45900.00000 0 -2999127.920 -24632342.230 -5999496.505 10 0 60920 46800.00000 0 -3195496.172 -25174056.182 -2838431.116 10 0 60920 47700.00000 0 -3388195.913 -25310307.006 377615.757 10 0 60920 48600.00000 0 -3521212.786 -25043461.381 3586359.755 10 0 60920 49500.00000 0 -3540615.711 -24389162.245 6725719.511 10 0 60920 50400.00000 0 -3397066.403 -23375639.805 9735005.435 10 0 60920 51300.00000 0 -3048135.166 -22042519.945 12556077.861 10 0 60920 52200.00000 0 -2460326.466 -20439180.575 15134453.442 10 0 60920 53100.00000 0 -1610730.018 -18622724.688 17420339.896 10 0 60920 54000.00000 0 -488228.747 -16655654.090 19369580.785 10 0 60920 54900.00000 0 905786.891 -14603339.653 20944493.775 10 0 60920 55800.00000 0 2557228.527 -12531391.824 22114587.682 10 0 60920 56700.00000 0 4439652.567 -10503038.941 22857145.776 10 0 60920 57600.00000 0 6515123.464 -8576620.407 23157664.938 10 0 60920 58500.00000 0 8735564.007 -6803297.155 23010142.501 10 0 60920 59400.00000 0 11044539.266 -5225073.139 22417205.052 10 0 60920 60300.00000 0 13379402.979 -3873209.126 21390075.790 10 0 60920 61200.00000 0 15673720.047 -2767094.480 19948379.733 10 0 60920 62100.00000 0 17859866.908 -1913624.109 18119788.634 10 0 60920 63000.00000 0 19871703.574 -1307107.313 15939510.329 10 0 60920 63900.00000 0 21647207.148 -929713.433 13449630.118 10 0 60920 64800.00000 0 23130957.305 -752436.885 10698314.800 10 0 60920 65700.00000 0 24276369.356 -736542.251 7738892.884 10 0 60920 66600.00000 0 25047580.088 -835429.540 4628827.495 10 0 60920 67500.00000 0 25420905.463 -996841.374 1428601.190 10 0 60920 68400.00000 0 25385806.731 -1165318.646 -1799465.732 10 0 60920 69300.00000 0 24945322.061 -1284799.833 -4992439.752 10 0 60920 70200.00000 0 24115943.502 -1301252.265 -8088016.386 10 0 60920 71100.00000 0 22926942.868 -1165221.669 -11025754.284 10 0 60920 72000.00000 0 21419174.044 -834189.288 -13748275.029 10 0 60920 72900.00000 0 19643401.966 -274633.970 -16202403.145 10 0 60920 73800.00000 0 17658229.154 536290.841 -18340222.082 10 0 60920 74700.00000 0 15527708.142 1609538.547 -20120023.833 10 0 60920 75600.00000 0 13318741.685 2943462.679 -21507132.395 10 0 60920 76500.00000 0 11098381.528 4523653.184 -22474584.228 10 0 60920 77400.00000 0 8931140.590 6323323.289 -23003652.220 10 0 60920 78300.00000 0 6876432.312 8304230.737 -23084203.229 10 0 60920 79200.00000 0 4986244.927 10418094.286 -22714882.968 10 0 60920 80100.00000 0 3303147.792 12608445.254 -21903125.725 10 0 60920 81000.00000 0 1858712.183 14812835.548 -20664990.077 10 0 60920 81900.00000 0 672410.865 16965308.802 -19024825.250 10 0 60920 82800.00000 0 -248959.931 18999030.441 -17014776.137 10 0 60920 83700.00000 0 -911314.832 20848966.214 -14674138.072 10 0 60920 84600.00000 0 -1332771.698 22454497.209 -12048575.214 10 0 60920 85500.00000 0 -1542626.561 23761862.442 -9189218.943 10 0 60921 0.00000 0 -1579857.195 24726327.775 -6151664.975 10 0 60921 900.00000 0 -1491220.830 25313992.286 -2994887.694 10 0 60921 1800.00000 0 -1329028.070 25503157.030 219902.687 10 0 60921 2700.00000 0 -1148688.145 25285202.530 3430443.371 10 0 60921 3600.00000 0 -1006129.497 24664938.825 6574615.934 10 0 60921 4500.00000 0 -955204.393 23660415.717 9591636.005 10 0 60921 5400.00000 0 -1045186.361 22302202.378 12423213.374 10 0 60921 6300.00000 0 -1318464.904 20632167.239 15014661.371 10 0 60921 7200.00000 0 -1808533.463 18701809.301 17315935.556 10 0 60921 8100.00000 0 -2538354.249 16570210.005 19282583.316 10 0 60921 9000.00000 0 -3519168.011 14301689.913 20876587.710 10 0 60921 9900.00000 0 -4749798.590 11963266.120 22067090.795 10 0 60921 10800.00000 0 -6216481.946 9622014.184 22830983.759 10 0 60921 11700.00000 0 -7893228.186 7342441.987 23153353.363 10 0 60921 12600.00000 0 -9742703.431 5183982.566 23027776.416 10 0 60921 13500.00000 0 -11717597.295 3198708.157 22456456.402 10 0 60921 14400.00000 0 -13762421.867 1429358.992 21450198.788 10 0 60921 15300.00000 0 -15815670.177 -92232.041 20028224.124 10 0 60921 16200.00000 0 -17812246.943 -1346253.585 18217820.711 10 0 60921 17100.00000 0 -19686072.568 -2325522.091 16053841.403 10 0 60921 18000.00000 0 -21372753.287 -3035554.088 13578052.011 10 0 60921 18900.00000 0 -22812206.668 -3494100.320 10838341.764 10 0 60921 19800.00000 0 -23951132.488 -3730160.159 7887809.243 10 0 60921 20700.00000 0 -24745224.410 -3782516.671 4783740.138 10 0 60921 21600.00000 0 -25161027.934 -3697853.441 1586495.903 10 0 60921 22500.00000 0 -25177364.291 -3528532.517 -1641665.204 10 0 60921 23400.00000 0 -24786257.904 -3330127.994 -4837811.098 10 0 60921 24300.00000 0 -23993325.924 -3158820.878 -7939577.870 10 0 60921 25200.00000 0 -22817611.362 -3068767.461 -10886404.885 10 0 60921 26100.00000 0 -21290865.291 -3109555.093 -13620736.875 10 0 60921 27000.00000 0 -19456307.540 -3323855.790 -16089167.441 10 0 60921 27900.00000 0 -17366917.925 -3745379.708 -18243499.688 10 0 60921 28800.00000 0 -15083330.494 -4397217.603 -20041701.513 10 0 60921 29700.00000 0 -12671420.363 -5290644.375 -21448735.634 10 0 60921 30600.00000 0 -10199685.793 -6424435.751 -22437247.390 10 0 60921 31500.00000 0 -7736536.721 -7784727.766 -22988096.612 10 0 60921 32400.00000 0 -5347604.498 -9345425.198 -23090723.485 10 0 60921 33300.00000 0 -3093186.103 -11069141.452 -22743341.996 10 0 60921 34200.00000 0 -1025929.844 -12908629.607 -21952958.240 10 0 60921 35100.00000 0 811141.392 -14808643.518 -20735214.592 10 0 60921 36000.00000 0 2386188.164 -16708149.806 -19114064.204 10 0 60921 36900.00000 0 3679630.748 -18542796.918 -17121283.707 10 0 60921 37800.00000 0 4684701.389 -20247537.055 -14795835.041 10 0 60921 38700.00000 0 5407452.560 -21759290.685 -12183090.176 10 0 60921 39600.00000 0 5866224.178 -23019542.070 -9333934.970 10 0 60921 40500.00000 0 6090595.406 -23976757.584 -6303770.555 10 0 60921 41400.00000 0 6119868.002 -24588526.505 -3151432.280 10 0 60921 42300.00000 0 6001147.469 -24823335.915 61952.319 10 0 60921 43200.00000 0 5787104.567 -24661906.963 3274144.352 10 0 60921 44100.00000 0 5533512.544 -24098038.183 6422990.566 10 0 60921 45000.00000 0 5296664.224 -23138922.153 9447613.914 10 0 60921 45900.00000 0 5130777.463 -21804923.509 12289575.601 10 0 60921 46800.00000 0 5085497.474 -20128828.463 14893987.444 10 0 60921 47700.00000 0 5203600.072 -18154597.402 17210554.461 10 0 60921 48600.00000 0 5518991.253 -15935672.275 19194529.267 10 0 60921 49500.00000 0 6055086.219 -13532908.221 20807561.475 10 0 60921 50400.00000 0 6823635.265 -11012213.966 22018427.274 10 0 60921 51300.00000 0 7824045.781 -8441997.022 22803626.388 10 0 60921 52200.00000 0 9043229.482 -5890517.488 23147835.805 10 0 60921 53100.00000 0 10455982.658 -3423257.959 23044211.886 10 0 60921 54000.00000 0 12025885.660 -1100416.512 22494534.856 10 0 60921 54900.00000 0 13706686.622 1025375.032 21509192.073 10 0 60921 55800.00000 0 15444114.446 2911014.049 20106999.055 10 0 60921 56700.00000 0 17178048.172 4524490.354 18314859.902 10 0 60921 57600.00000 0 18844954.613 5845984.742 16167271.551 10 0 60921 58500.00000 0 20380494.254 6868456.490 13705679.178 10 0 60921 59400.00000 0 21722187.549 7597694.364 10977693.084 10 0 60921 60300.00000 0 22812030.168 8051827.907 8036180.305 10 0 60921 61200.00000 0 23598946.806 8260318.389 4938247.202 10 0 60921 62100.00000 0 24040979.019 8262471.050 1744131.963 10 0 60921 63000.00000 0 24107112.922 8105530.946 -1483971.588 10 0 60921 63900.00000 0 23778667.241 7842443.031 -4683135.391 10 0 60921 64800.00000 0 23050180.589 7529372.057 -7790938.796 10 0 60921 65700.00000 0 21929758.044 7223088.793 -10746704.586 10 0 60921 66600.00000 0 20438860.354 6978335.349 -13492703.273 10 0 60921 67500.00000 0 18611543.180 6845283.593 -15975300.030 10 0 60921 68400.00000 0 16493177.670 6867196.902 -18146019.937 10 0 60921 69300.00000 0 14138706.138 7078396.626 -19962508.921 10 0 60921 70200.00000 0 11610506.770 7502621.432 -21389370.374 10 0 60921 71100.00000 0 8975957.956 8151850.433 -22398860.264 10 0 60921 72000.00000 0 6304805.628 9025640.776 -22971426.922 10 0 60921 72900.00000 0 3666444.990 10111007.949 -23096085.192 10 0 60921 73800.00000 0 1127231.207 11382853.568 -22770618.379 10 0 60921 74700.00000 0 -1252068.165 12804921.848 -22001605.091 10 0 60921 75600.00000 0 -3418572.889 14331243.383 -20804271.812 10 0 60921 76500.00000 0 -5329246.905 15908004.288 -19202175.502 10 0 60921 77400.00000 0 -6952432.349 17475760.852 -17226723.959 10 0 60921 78300.00000 0 -8268899.055 18971905.616 -14916544.716 10 0 60921 79200.00000 0 -9272368.608 20333280.576 -12316716.103 10 0 60921 80100.00000 0 -9969494.224 21498827.412 -9477876.622 10 0 60921 81000.00000 0 -10379300.651 22412163.629 -6455230.905 10 0 60921 81900.00000 0 -10532110.767 23023977.068 -3307472.218 10 0 60921 82800.00000 0 -10468006.730 23294139.246 -95642.925 10 0 60921 83700.00000 0 -10234892.639 23193450.166 3118044.952 10 0 60921 84600.00000 0 -9886241.747 22704942.864 6271406.452 10 0 60921 85500.00000 0 -9478623.870 21824694.409 9303475.057 99